Location: ??????
(41.3164°N, 22.6615°E)
Time: 17:40:49
(UTC+00:00)

CZ-2C R/B - Pass Details

Date: 24 May 2022
Orbit: 785 x 869 km, 98.2° (Epoch: 28 June)

Event Time Altitude Azimuth Distance (km) Brightness Sun altitude
Rises 02:21:07 0° 143° (SE) 3,264 5.8 -7.5°
Reaches altitude 10° 02:23:33 10° 136° (SE) 2,343 5.1 -7.1°
Maximum altitude 02:28:17 38° 69° (ENE) 1,189 4.3 -6.4°
Drops below altitude 10° 02:33:07 10° 2° (N) 2,386 5.6 -5.7°
Sets 02:35:36 0° 355° (N) 3,333 6.2 -5.3°
